Year,Month,Day,Hour,Minute,Value (Times are PST for windspeed in km/hr)
2014,10,23,00,00,13.50
2014,10,23,00,01,13.60
2014,10,23,00,02,14.90
2014,10,23,00,03,13.10
2014,10,23,00,04,15.20
2014,10,23,00,05,18.20
2014,10,23,00,06,16.10
2014,10,23,00,07,19.20
2014,10,23,00,08,19.90
2014,10,23,00,09,18.40
2014,10,23,00,10,14.60
2014,10,23,00,11,14.60
2014,10,23,00,12,12.30
2014,10,23,00,13,10.70
2014,10,23,00,14,9.10
2014,10,23,00,15,12.40
2014,10,23,00,16,6.50
2014,10,23,00,17,10.00
2014,10,23,00,18,13.30
2014,10,23,00,19,9.90
2014,10,23,00,20,8.30
2014,10,23,00,21,2.80
2014,10,23,00,22,1.70
2014,10,23,00,23,3.90
2014,10,23,00,24,1.30
2014,10,23,00,25,5.30
2014,10,23,00,26,4.70
2014,10,23,00,27,4.60
2014,10,23,00,28,7.20
2014,10,23,00,29,6.00
2014,10,23,00,30,6.20
2014,10,23,00,31,5.20
2014,10,23,00,32,7.40
2014,10,23,00,33,7.60
2014,10,23,00,34,6.50
2014,10,23,00,35,2.50
2014,10,23,00,36,9.00
2014,10,23,00,37,4.90
2014,10,23,00,38,3.00
2014,10,23,00,39,5.90
2014,10,23,00,40,12.50
2014,10,23,00,41,3.00
2014,10,23,00,42,3.70
2014,10,23,00,43,11.80
2014,10,23,00,44,5.70
2014,10,23,00,45,4.10
2014,10,23,00,46,6.10
2014,10,23,00,47,3.60
2014,10,23,00,48,4.20
2014,10,23,00,49,8.40
2014,10,23,00,50,2.70
2014,10,23,00,51,4.40
2014,10,23,00,52,7.70
2014,10,23,00,53,8.70
2014,10,23,00,54,3.50
2014,10,23,00,55,2.90
2014,10,23,00,56,1.80
2014,10,23,00,57,5.00
2014,10,23,00,58,4.10
2014,10,23,00,59,1.10
2014,10,23,01,00,3.70
2014,10,23,01,01,4.50
2014,10,23,01,02,1.40
2014,10,23,01,03,4.30
2014,10,23,01,04,2.70
2014,10,23,01,05,2.40
2014,10,23,01,06,5.30
2014,10,23,01,07,3.80
2014,10,23,01,08,4.00
2014,10,23,01,09,4.10
2014,10,23,01,10,2.20
2014,10,23,01,11,2.00
2014,10,23,01,12,1.40
2014,10,23,01,13,4.90
2014,10,23,01,14,0.60
2014,10,23,01,15,3.60
2014,10,23,01,16,0.40
2014,10,23,01,17,0.00
2014,10,23,01,18,3.10
2014,10,23,01,19,4.70
2014,10,23,01,20,1.50
2014,10,23,01,21,3.90
2014,10,23,01,22,5.00
2014,10,23,01,23,4.50
2014,10,23,01,24,5.40
2014,10,23,01,25,6.40
2014,10,23,01,26,3.30
2014,10,23,01,27,0.00
2014,10,23,01,28,4.20
2014,10,23,01,29,3.10
2014,10,23,01,30,3.60
2014,10,23,01,31,3.20
2014,10,23,01,32,1.20
2014,10,23,01,33,3.80
2014,10,23,01,34,5.10
2014,10,23,01,35,4.30
2014,10,23,01,36,5.90
2014,10,23,01,37,0.70
2014,10,23,01,38,1.60
2014,10,23,01,39,1.30
2014,10,23,01,40,0.80
2014,10,23,01,41,2.50
2014,10,23,01,42,0.90
2014,10,23,01,43,0.40
2014,10,23,01,44,0.60
2014,10,23,01,45,0.00
2014,10,23,01,46,0.40
2014,10,23,01,47,0.00
2014,10,23,01,48,0.00
2014,10,23,01,49,0.00
2014,10,23,01,50,0.00
2014,10,23,01,51,0.00
2014,10,23,01,52,0.00
2014,10,23,01,53,0.00
2014,10,23,01,54,0.00
2014,10,23,01,55,0.00
2014,10,23,01,56,0.00
2014,10,23,01,57,0.10
2014,10,23,01,58,0.30
2014,10,23,01,59,0.00
2014,10,23,02,00,0.00
2014,10,23,02,01,0.00
2014,10,23,02,02,0.00
2014,10,23,02,03,0.00
2014,10,23,02,04,0.00
2014,10,23,02,05,0.00
2014,10,23,02,06,0.00
2014,10,23,02,07,0.00
2014,10,23,02,08,0.20
2014,10,23,02,09,0.20
2014,10,23,02,10,0.00
2014,10,23,02,11,0.00
2014,10,23,02,12,0.00
2014,10,23,02,13,0.00
2014,10,23,02,14,0.00
2014,10,23,02,15,0.00
2014,10,23,02,16,0.00
2014,10,23,02,17,0.00
2014,10,23,02,18,0.00
2014,10,23,02,19,0.00
2014,10,23,02,20,0.00
2014,10,23,02,21,0.00
2014,10,23,02,22,0.00
2014,10,23,02,23,0.00
2014,10,23,02,24,0.00
2014,10,23,02,25,0.20
2014,10,23,02,26,1.00
2014,10,23,02,27,3.60
2014,10,23,02,28,6.40
2014,10,23,02,29,6.20
2014,10,23,02,30,3.70
2014,10,23,02,31,4.80
2014,10,23,02,32,4.50
2014,10,23,02,33,2.40
2014,10,23,02,34,0.90
2014,10,23,02,35,0.00
2014,10,23,02,36,0.00
2014,10,23,02,37,2.00
2014,10,23,02,38,0.50
2014,10,23,02,39,3.30
2014,10,23,02,40,4.70
2014,10,23,02,41,1.60
2014,10,23,02,42,1.30
2014,10,23,02,43,0.30
2014,10,23,02,44,0.00
2014,10,23,02,45,0.00
2014,10,23,02,46,0.00
2014,10,23,02,47,0.00
2014,10,23,02,48,0.00
2014,10,23,02,49,0.00
2014,10,23,02,50,0.00
2014,10,23,02,51,0.00
2014,10,23,02,52,0.00
2014,10,23,02,53,0.00
2014,10,23,02,54,0.00
2014,10,23,02,55,0.00
2014,10,23,02,56,0.00
2014,10,23,02,57,0.00
2014,10,23,02,58,0.00
2014,10,23,02,59,0.00
2014,10,23,03,00,0.00
2014,10,23,03,01,0.00
2014,10,23,03,02,0.00
2014,10,23,03,03,0.00
2014,10,23,03,04,0.00
2014,10,23,03,05,0.00
2014,10,23,03,06,0.00
2014,10,23,03,07,0.00
2014,10,23,03,08,0.00
2014,10,23,03,09,0.00
2014,10,23,03,10,0.00
2014,10,23,03,11,0.00
2014,10,23,03,12,0.00
2014,10,23,03,13,0.00
2014,10,23,03,14,0.00
2014,10,23,03,15,0.00
2014,10,23,03,16,0.00
2014,10,23,03,17,0.00
2014,10,23,03,18,0.00
2014,10,23,03,19,0.00
2014,10,23,03,20,0.00
2014,10,23,03,21,0.00
2014,10,23,03,22,0.00
2014,10,23,03,23,0.00
2014,10,23,03,24,0.00
2014,10,23,03,25,0.00
2014,10,23,03,26,0.00
2014,10,23,03,27,0.00
2014,10,23,03,28,0.00
2014,10,23,03,29,0.00
2014,10,23,03,30,0.00
2014,10,23,03,31,0.00
2014,10,23,03,32,0.00
2014,10,23,03,33,0.00
2014,10,23,03,34,1.00
2014,10,23,03,35,0.20
2014,10,23,03,36,0.00
2014,10,23,03,37,0.60
2014,10,23,03,38,0.20
2014,10,23,03,39,0.00
2014,10,23,03,40,0.10
2014,10,23,03,41,0.50
2014,10,23,03,42,0.00
2014,10,23,03,43,0.00
2014,10,23,03,44,0.00
2014,10,23,03,45,0.10
2014,10,23,03,46,0.20
2014,10,23,03,47,4.10
2014,10,23,03,48,3.30
2014,10,23,03,49,0.20
2014,10,23,03,50,0.00
2014,10,23,03,51,0.00
2014,10,23,03,52,0.00
2014,10,23,03,53,0.00
2014,10,23,03,54,0.00
2014,10,23,03,55,0.00
2014,10,23,03,56,0.00
2014,10,23,03,57,0.20
2014,10,23,03,58,0.10
2014,10,23,03,59,0.10
2014,10,23,04,00,0.00
2014,10,23,04,01,2.40
2014,10,23,04,02,2.00
2014,10,23,04,03,0.60
2014,10,23,04,04,0.00
2014,10,23,04,05,0.00
2014,10,23,04,06,0.30
2014,10,23,04,07,0.00
2014,10,23,04,08,1.40
2014,10,23,04,09,0.30
2014,10,23,04,10,1.60
2014,10,23,04,11,0.00
2014,10,23,04,12,0.00
2014,10,23,04,13,1.80
2014,10,23,04,14,2.10
2014,10,23,04,15,0.70
2014,10,23,04,16,0.50
2014,10,23,04,17,2.30
2014,10,23,04,18,3.20
2014,10,23,04,19,3.90
2014,10,23,04,20,6.30
2014,10,23,04,21,5.10
2014,10,23,04,22,4.80
2014,10,23,04,23,2.50
2014,10,23,04,24,1.90
2014,10,23,04,25,2.70
2014,10,23,04,26,4.70
2014,10,23,04,27,3.90
2014,10,23,04,28,6.30
2014,10,23,04,29,7.70
2014,10,23,04,30,3.10
2014,10,23,04,31,5.60
2014,10,23,04,32,7.70
2014,10,23,04,33,5.40
2014,10,23,04,34,5.50
2014,10,23,04,35,2.70
2014,10,23,04,36,4.40
2014,10,23,04,37,1.40
2014,10,23,04,38,0.20
2014,10,23,04,39,1.60
2014,10,23,04,40,0.00
2014,10,23,04,41,0.00
2014,10,23,04,42,0.00
2014,10,23,04,43,0.60
2014,10,23,04,44,0.00
2014,10,23,04,45,0.00
2014,10,23,04,46,0.60
2014,10,23,04,47,0.00
2014,10,23,04,48,0.00
2014,10,23,04,49,0.00
2014,10,23,04,50,0.00
2014,10,23,04,51,1.10
2014,10,23,04,52,0.00
2014,10,23,04,53,0.00
2014,10,23,04,54,0.00
2014,10,23,04,55,1.90
2014,10,23,04,56,0.50
2014,10,23,04,57,0.00
2014,10,23,04,58,0.50
2014,10,23,04,59,0.00
2014,10,23,05,00,0.00
2014,10,23,05,01,0.20
2014,10,23,05,02,0.00
2014,10,23,05,03,0.00
2014,10,23,05,04,0.00
2014,10,23,05,05,0.00
2014,10,23,05,06,0.00
2014,10,23,05,07,0.10
2014,10,23,05,08,0.00
2014,10,23,05,09,0.00
2014,10,23,05,10,0.00
2014,10,23,05,11,0.00
2014,10,23,05,12,0.00
2014,10,23,05,13,0.00
2014,10,23,05,14,0.00
2014,10,23,05,15,0.00
2014,10,23,05,16,0.00
2014,10,23,05,17,0.10
2014,10,23,05,18,0.00
2014,10,23,05,19,0.00
2014,10,23,05,20,0.00
2014,10,23,05,21,0.00
2014,10,23,05,22,0.00
2014,10,23,05,23,0.00
2014,10,23,05,24,0.00
2014,10,23,05,25,0.00
2014,10,23,05,26,0.00
2014,10,23,05,27,0.00
2014,10,23,05,28,0.00
2014,10,23,05,29,0.00
2014,10,23,05,30,0.00
2014,10,23,05,31,0.00
2014,10,23,05,32,0.00
2014,10,23,05,33,0.00
2014,10,23,05,34,0.00
2014,10,23,05,35,0.00
2014,10,23,05,36,0.10
2014,10,23,05,37,0.00
2014,10,23,05,38,0.00
2014,10,23,05,39,0.00
2014,10,23,05,40,0.00
2014,10,23,05,41,0.00
2014,10,23,05,42,0.00
2014,10,23,05,43,0.30
2014,10,23,05,44,3.10
2014,10,23,05,45,1.50
2014,10,23,05,46,0.30
2014,10,23,05,47,0.20
2014,10,23,05,48,1.00
2014,10,23,05,49,1.50
2014,10,23,05,50,0.40
2014,10,23,05,51,0.40
2014,10,23,05,52,2.70
2014,10,23,05,53,2.50
2014,10,23,05,54,3.50
2014,10,23,05,55,3.10
2014,10,23,05,56,1.40
2014,10,23,05,57,0.60
2014,10,23,05,58,0.30
2014,10,23,05,59,0.00
2014,10,23,06,00,0.00
2014,10,23,06,01,0.20
2014,10,23,06,02,0.80
2014,10,23,06,03,0.20
2014,10,23,06,04,0.00
2014,10,23,06,05,0.60
2014,10,23,06,06,1.00
2014,10,23,06,07,2.00
2014,10,23,06,08,0.50
2014,10,23,06,09,0.20
2014,10,23,06,10,1.60
2014,10,23,06,11,2.30
2014,10,23,06,12,0.60
2014,10,23,06,13,0.10
2014,10,23,06,14,0.00
2014,10,23,06,15,0.10
2014,10,23,06,16,0.00
2014,10,23,06,17,0.00
2014,10,23,06,18,0.00
2014,10,23,06,19,0.10
2014,10,23,06,20,1.80
2014,10,23,06,21,3.60
2014,10,23,06,22,5.90
2014,10,23,06,23,4.10
2014,10,23,06,24,3.20
2014,10,23,06,25,4.50
2014,10,23,06,26,3.90
2014,10,23,06,27,2.80
2014,10,23,06,28,1.40
2014,10,23,06,29,0.80
2014,10,23,06,30,0.00
2014,10,23,06,31,0.00
2014,10,23,06,32,0.20
2014,10,23,06,33,0.00
2014,10,23,06,34,0.00
2014,10,23,06,35,0.10
2014,10,23,06,36,0.50
2014,10,23,06,37,0.00
2014,10,23,06,38,0.10
2014,10,23,06,39,0.30
2014,10,23,06,40,0.30
2014,10,23,06,41,0.20
2014,10,23,06,42,1.30
2014,10,23,06,43,0.60
2014,10,23,06,44,0.00
2014,10,23,06,45,0.00
2014,10,23,06,46,0.20
2014,10,23,06,47,0.90
2014,10,23,06,48,0.00
2014,10,23,06,49,0.00
2014,10,23,06,50,1.30
2014,10,23,06,51,0.90
2014,10,23,06,52,1.30
2014,10,23,06,53,0.00
2014,10,23,06,54,0.40
2014,10,23,06,55,0.70
2014,10,23,06,56,1.20
2014,10,23,06,57,1.40
2014,10,23,06,58,0.50
2014,10,23,06,59,0.10
2014,10,23,07,00,0.20
2014,10,23,07,01,0.10
2014,10,23,07,02,0.80
2014,10,23,07,03,0.90
2014,10,23,07,04,0.20
2014,10,23,07,05,0.00
2014,10,23,07,06,0.00
2014,10,23,07,07,0.00
2014,10,23,07,08,0.00
2014,10,23,07,09,0.00
2014,10,23,07,10,0.00
2014,10,23,07,11,0.10
2014,10,23,07,12,0.20
2014,10,23,07,13,0.00
2014,10,23,07,14,0.00
2014,10,23,07,15,0.00
2014,10,23,07,16,0.00
2014,10,23,07,17,0.00
2014,10,23,07,18,0.00
2014,10,23,07,19,0.00
2014,10,23,07,20,0.00
2014,10,23,07,21,0.00
2014,10,23,07,22,0.00
2014,10,23,07,23,0.00
2014,10,23,07,24,0.00
2014,10,23,07,25,0.00
2014,10,23,07,26,0.00
2014,10,23,07,27,0.70
2014,10,23,07,28,0.50
2014,10,23,07,29,1.00
2014,10,23,07,30,0.10
2014,10,23,07,31,0.00
2014,10,23,07,32,0.00
2014,10,23,07,33,0.00
2014,10,23,07,34,0.00
2014,10,23,07,35,0.00
2014,10,23,07,36,0.00
2014,10,23,07,37,0.00
2014,10,23,07,38,0.00
2014,10,23,07,39,0.00
2014,10,23,07,40,0.00
2014,10,23,07,41,0.00
2014,10,23,07,42,0.00
2014,10,23,07,43,0.00
2014,10,23,07,44,0.00
2014,10,23,07,45,0.10
2014,10,23,07,46,0.00
2014,10,23,07,47,0.00
2014,10,23,07,48,0.00
2014,10,23,07,49,0.00
2014,10,23,07,50,0.00
2014,10,23,07,51,0.00
2014,10,23,07,52,0.00
2014,10,23,07,53,0.00
2014,10,23,07,54,0.00
2014,10,23,07,55,0.00
2014,10,23,07,56,0.00
2014,10,23,07,57,0.00
2014,10,23,07,58,0.00
2014,10,23,07,59,0.00
2014,10,23,08,00,0.30
2014,10,23,08,01,0.50
2014,10,23,08,02,0.30
2014,10,23,08,03,1.40
2014,10,23,08,04,1.30
2014,10,23,08,05,0.00
2014,10,23,08,06,1.40
2014,10,23,08,07,2.50
2014,10,23,08,08,2.90
2014,10,23,08,09,0.70
2014,10,23,08,10,0.00
2014,10,23,08,11,1.10
2014,10,23,08,12,4.20
2014,10,23,08,13,2.70
2014,10,23,08,14,0.30
2014,10,23,08,15,0.00
2014,10,23,08,16,0.00
2014,10,23,08,17,0.00
2014,10,23,08,18,0.70
2014,10,23,08,19,0.30
2014,10,23,08,20,0.80
2014,10,23,08,21,0.30
2014,10,23,08,22,0.20
2014,10,23,08,23,0.00
2014,10,23,08,24,0.00
2014,10,23,08,25,0.60
2014,10,23,08,26,0.00
2014,10,23,08,27,0.00
2014,10,23,08,28,0.00
2014,10,23,08,29,0.10
2014,10,23,08,30,0.00
2014,10,23,08,31,0.00
2014,10,23,08,32,0.00
2014,10,23,08,33,0.00
2014,10,23,08,34,0.00
2014,10,23,08,35,0.00
2014,10,23,08,36,0.00
2014,10,23,08,37,0.00
2014,10,23,08,38,0.00
2014,10,23,08,39,0.00
2014,10,23,08,40,0.00
2014,10,23,08,41,0.00
2014,10,23,08,42,0.00
2014,10,23,08,43,0.00
2014,10,23,08,44,0.00
2014,10,23,08,45,0.00
2014,10,23,08,46,0.10
2014,10,23,08,47,0.00
2014,10,23,08,48,0.00
2014,10,23,08,49,0.10
2014,10,23,08,50,0.70
2014,10,23,08,51,0.00
2014,10,23,08,52,0.00
2014,10,23,08,53,0.20
2014,10,23,08,54,0.10
2014,10,23,08,55,0.10
2014,10,23,08,56,0.10
2014,10,23,08,57,0.00
2014,10,23,08,58,0.00
2014,10,23,08,59,0.00
2014,10,23,09,00,0.30
2014,10,23,09,01,2.40
2014,10,23,09,02,5.10
2014,10,23,09,03,5.80
2014,10,23,09,04,3.80
2014,10,23,09,05,4.50
2014,10,23,09,06,5.80
2014,10,23,09,07,3.70
2014,10,23,09,08,2.50
2014,10,23,09,09,4.50
2014,10,23,09,10,3.70
2014,10,23,09,11,3.30
2014,10,23,09,12,6.90
2014,10,23,09,13,4.70
2014,10,23,09,14,2.30
2014,10,23,09,15,2.70
2014,10,23,09,16,3.10
2014,10,23,09,17,4.40
2014,10,23,09,18,5.20
2014,10,23,09,19,3.00
2014,10,23,09,20,3.10
2014,10,23,09,21,4.80
2014,10,23,09,22,3.40
2014,10,23,09,23,4.00
2014,10,23,09,24,6.10
2014,10,23,09,25,5.80
2014,10,23,09,26,1.90
2014,10,23,09,27,0.00
2014,10,23,09,28,1.90
2014,10,23,09,29,1.40
2014,10,23,09,30,5.10
2014,10,23,09,31,1.80
2014,10,23,09,32,2.80
2014,10,23,09,33,4.60
2014,10,23,09,34,2.30
2014,10,23,09,35,3.10
2014,10,23,09,36,5.40
2014,10,23,09,37,3.90
2014,10,23,09,38,3.20
2014,10,23,09,39,4.20
2014,10,23,09,40,4.20
2014,10,23,09,41,4.60
2014,10,23,09,42,5.50
2014,10,23,09,43,7.00
2014,10,23,09,44,4.70
2014,10,23,09,45,5.70
2014,10,23,09,46,3.40
2014,10,23,09,47,5.10
2014,10,23,09,48,8.00
2014,10,23,09,49,8.00
2014,10,23,09,50,6.80
2014,10,23,09,51,6.00
2014,10,23,09,52,2.10
2014,10,23,09,53,4.00
2014,10,23,09,54,5.40
2014,10,23,09,55,3.80
2014,10,23,09,56,2.20
2014,10,23,09,57,0.30
2014,10,23,09,58,0.00
2014,10,23,09,59,0.50
2014,10,23,10,00,3.40
2014,10,23,10,01,4.70
2014,10,23,10,02,2.30
2014,10,23,10,03,0.20
2014,10,23,10,04,0.00
2014,10,23,10,05,2.20
2014,10,23,10,06,4.70
2014,10,23,10,07,5.30
2014,10,23,10,08,5.20
2014,10,23,10,09,3.40
2014,10,23,10,10,2.30
2014,10,23,10,11,3.60
2014,10,23,10,12,6.00
2014,10,23,10,13,2.40
2014,10,23,10,14,4.20
2014,10,23,10,15,1.60
2014,10,23,10,16,1.80
2014,10,23,10,17,1.80
2014,10,23,10,18,3.90
2014,10,23,10,19,3.80
2014,10,23,10,20,6.60
2014,10,23,10,21,5.60
2014,10,23,10,22,4.60
2014,10,23,10,23,5.80
2014,10,23,10,24,5.10
2014,10,23,10,25,6.30
2014,10,23,10,26,6.60
2014,10,23,10,27,3.50
2014,10,23,10,28,1.50
2014,10,23,10,29,3.10
2014,10,23,10,30,3.50
2014,10,23,10,31,4.70
2014,10,23,10,32,3.40
2014,10,23,10,33,3.20
2014,10,23,10,34,3.50
2014,10,23,10,35,5.80
2014,10,23,10,36,4.70
2014,10,23,10,37,4.40
2014,10,23,10,38,8.00
2014,10,23,10,39,7.70
2014,10,23,10,40,7.30
2014,10,23,10,41,5.00
2014,10,23,10,42,2.00
2014,10,23,10,43,4.30
2014,10,23,10,44,7.40
2014,10,23,10,45,4.80
2014,10,23,10,46,1.10
2014,10,23,10,47,3.10
2014,10,23,10,48,4.60
2014,10,23,10,49,5.10
2014,10,23,10,50,4.70
2014,10,23,10,51,6.90
2014,10,23,10,52,4.20
2014,10,23,10,53,6.00
2014,10,23,10,54,3.90
2014,10,23,10,55,5.60
2014,10,23,10,56,6.00
2014,10,23,10,57,4.00
2014,10,23,10,58,2.90
2014,10,23,10,59,6.40
2014,10,23,11,00,4.90
2014,10,23,11,01,5.10
2014,10,23,11,02,4.90
2014,10,23,11,03,3.10
2014,10,23,11,04,0.30
2014,10,23,11,05,3.10
2014,10,23,11,06,7.00
2014,10,23,11,07,5.10
2014,10,23,11,08,10.10
2014,10,23,11,09,5.20
2014,10,23,11,10,2.50
2014,10,23,11,11,8.70
2014,10,23,11,12,5.20
2014,10,23,11,13,6.30
2014,10,23,11,14,3.90
2014,10,23,11,15,4.60
2014,10,23,11,16,3.50
2014,10,23,11,17,6.30
2014,10,23,11,18,5.30
2014,10,23,11,19,7.40
2014,10,23,11,20,5.60
2014,10,23,11,21,4.80
2014,10,23,11,22,2.60
2014,10,23,11,23,5.10
2014,10,23,11,24,7.10
2014,10,23,11,25,4.70
2014,10,23,11,26,8.70
2014,10,23,11,27,4.70
2014,10,23,11,28,3.90
2014,10,23,11,29,2.80
2014,10,23,11,30,4.90
2014,10,23,11,31,6.50
2014,10,23,11,32,8.40
2014,10,23,11,33,7.70
2014,10,23,11,34,7.30
2014,10,23,11,35,6.20
2014,10,23,11,36,3.30
2014,10,23,11,37,6.40
2014,10,23,11,38,5.20
2014,10,23,11,39,4.40
2014,10,23,11,40,4.20
2014,10,23,11,41,5.10
2014,10,23,11,42,4.30
2014,10,23,11,43,5.80
2014,10,23,11,44,6.10
2014,10,23,11,45,4.60
2014,10,23,11,46,6.40
2014,10,23,11,47,5.20
2014,10,23,11,48,7.60
2014,10,23,11,49,4.00
2014,10,23,11,50,0.80
2014,10,23,11,51,3.10
2014,10,23,11,52,4.90
2014,10,23,11,53,5.20
2014,10,23,11,54,2.70
2014,10,23,11,55,5.50
2014,10,23,11,56,6.00
2014,10,23,11,57,7.30
2014,10,23,11,58,9.10
2014,10,23,11,59,7.20
2014,10,23,12,00,8.50
2014,10,23,12,01,9.20
2014,10,23,12,02,6.40
2014,10,23,12,03,4.80
2014,10,23,12,04,7.30
2014,10,23,12,05,7.80
2014,10,23,12,06,6.40
2014,10,23,12,07,2.20
2014,10,23,12,08,3.50
2014,10,23,12,09,5.90
2014,10,23,12,10,5.30
2014,10,23,12,11,7.30
2014,10,23,12,12,11.70
2014,10,23,12,13,6.90
2014,10,23,12,14,7.80
2014,10,23,12,15,8.50
2014,10,23,12,16,8.90
2014,10,23,12,17,9.50
2014,10,23,12,18,11.90
2014,10,23,12,19,9.60
2014,10,23,12,20,7.20
2014,10,23,12,21,6.90
2014,10,23,12,22,7.70
2014,10,23,12,23,8.80
2014,10,23,12,24,6.50
2014,10,23,12,25,4.10
2014,10,23,12,26,5.70
2014,10,23,12,27,7.00
2014,10,23,12,28,7.00
2014,10,23,12,29,8.00
2014,10,23,12,30,10.10
2014,10,23,12,31,9.50
2014,10,23,12,32,9.20
2014,10,23,12,33,8.90
2014,10,23,12,34,7.70
2014,10,23,12,35,8.00
2014,10,23,12,36,6.50
2014,10,23,12,37,9.60
2014,10,23,12,38,14.30
2014,10,23,12,39,7.40
2014,10,23,12,40,10.50
2014,10,23,12,41,6.40
2014,10,23,12,42,12.10
2014,10,23,12,43,10.40
2014,10,23,12,44,6.50
2014,10,23,12,45,13.00
2014,10,23,12,46,12.70
2014,10,23,12,47,11.70
2014,10,23,12,48,7.10
2014,10,23,12,49,11.30
2014,10,23,12,50,9.80
2014,10,23,12,51,10.80
2014,10,23,12,52,11.60
2014,10,23,12,53,10.70
2014,10,23,12,54,15.00
2014,10,23,12,55,11.20
2014,10,23,12,56,8.00
2014,10,23,12,57,6.60
2014,10,23,12,58,8.10
2014,10,23,12,59,7.80
2014,10,23,13,00,9.30
2014,10,23,13,01,7.50
2014,10,23,13,02,6.20
2014,10,23,13,03,10.30
2014,10,23,13,04,9.80
2014,10,23,13,05,7.40
2014,10,23,13,06,8.20
2014,10,23,13,07,8.90
2014,10,23,13,08,6.40
2014,10,23,13,09,8.40
2014,10,23,13,10,9.60
2014,10,23,13,11,11.00
2014,10,23,13,12,5.80
2014,10,23,13,13,11.40
2014,10,23,13,14,10.90
2014,10,23,13,15,8.50
2014,10,23,13,16,5.20
2014,10,23,13,17,12.80
2014,10,23,13,18,7.10
2014,10,23,13,19,8.40
2014,10,23,13,20,9.60
2014,10,23,13,21,7.80
2014,10,23,13,22,9.60
2014,10,23,13,23,9.40
2014,10,23,13,24,9.10
2014,10,23,13,25,9.60
2014,10,23,13,26,13.60
2014,10,23,13,27,12.70
2014,10,23,13,28,13.00
2014,10,23,13,29,11.20
2014,10,23,13,30,11.00
2014,10,23,13,31,13.40
2014,10,23,13,32,15.00
2014,10,23,13,33,11.20
2014,10,23,13,34,10.50
2014,10,23,13,35,9.00
2014,10,23,13,36,10.30
2014,10,23,13,37,12.90
2014,10,23,13,38,15.00
2014,10,23,13,39,11.70
2014,10,23,13,40,12.50
2014,10,23,13,41,8.30
2014,10,23,13,42,9.00
2014,10,23,13,43,13.40
2014,10,23,13,44,11.50
2014,10,23,13,45,12.40
2014,10,23,13,46,8.60
2014,10,23,13,47,8.10
2014,10,23,13,48,8.50
2014,10,23,13,49,12.20
2014,10,23,13,50,16.20
2014,10,23,13,51,7.20
2014,10,23,13,52,5.60
2014,10,23,13,53,4.70
2014,10,23,13,54,6.60
2014,10,23,13,55,4.60
2014,10,23,13,56,5.10
2014,10,23,13,57,5.50
2014,10,23,13,58,6.80
2014,10,23,13,59,5.50
2014,10,23,14,00,0.60
2014,10,23,14,01,3.50
2014,10,23,14,02,12.10
2014,10,23,14,03,6.80
2014,10,23,14,04,6.60
2014,10,23,14,05,4.20
2014,10,23,14,06,6.30
2014,10,23,14,07,6.30
2014,10,23,14,08,7.50
2014,10,23,14,09,3.90
2014,10,23,14,10,3.60
2014,10,23,14,11,9.80
2014,10,23,14,12,7.30
2014,10,23,14,13,13.40
2014,10,23,14,14,10.00
2014,10,23,14,15,7.90
2014,10,23,14,16,10.30
2014,10,23,14,17,6.30
2014,10,23,14,18,7.00
2014,10,23,14,19,6.50
2014,10,23,14,20,14.30
2014,10,23,14,21,6.70
2014,10,23,14,22,10.20
2014,10,23,14,23,3.90
2014,10,23,14,24,2.10
2014,10,23,14,25,4.20
2014,10,23,14,26,6.10
2014,10,23,14,27,8.90
2014,10,23,14,28,1.90
2014,10,23,14,29,2.50
2014,10,23,14,30,1.70
2014,10,23,14,31,2.30
2014,10,23,14,32,3.70
2014,10,23,14,33,3.60
2014,10,23,14,34,1.30
2014,10,23,14,35,2.20
2014,10,23,14,36,1.30
2014,10,23,14,37,1.50
2014,10,23,14,38,3.90
2014,10,23,14,39,1.30
2014,10,23,14,40,5.90
2014,10,23,14,41,4.10
2014,10,23,14,42,2.50
2014,10,23,14,43,2.50
2014,10,23,14,44,3.90
2014,10,23,14,45,6.50
2014,10,23,14,46,6.30
2014,10,23,14,47,0.80
2014,10,23,14,48,4.40
2014,10,23,14,49,6.80
2014,10,23,14,50,5.60
2014,10,23,14,51,6.40
2014,10,23,14,52,6.40
2014,10,23,14,53,7.20
2014,10,23,14,54,6.00
2014,10,23,14,55,5.60
2014,10,23,14,56,5.20
2014,10,23,14,57,6.60
2014,10,23,14,58,2.00
2014,10,23,14,59,10.50
2014,10,23,15,00,5.60
2014,10,23,15,01,5.50
2014,10,23,15,02,2.70
2014,10,23,15,03,2.90
2014,10,23,15,04,3.50
2014,10,23,15,05,1.90
2014,10,23,15,06,4.40
2014,10,23,15,07,0.30
2014,10,23,15,08,0.00
2014,10,23,15,09,4.10
2014,10,23,15,10,1.80
2014,10,23,15,11,3.10
2014,10,23,15,12,2.40
2014,10,23,15,13,1.70
2014,10,23,15,14,1.50
2014,10,23,15,15,2.90
2014,10,23,15,16,1.10
2014,10,23,15,17,0.00
2014,10,23,15,18,0.00
2014,10,23,15,19,0.00
2014,10,23,15,20,0.00
2014,10,23,15,21,0.00
2014,10,23,15,22,1.50
2014,10,23,15,23,1.80
2014,10,23,15,24,5.60
2014,10,23,15,25,3.90
2014,10,23,15,26,0.40
2014,10,23,15,27,0.40
2014,10,23,15,28,0.10
2014,10,23,15,29,7.60
2014,10,23,15,30,3.50
2014,10,23,15,31,5.80
2014,10,23,15,32,7.00
2014,10,23,15,33,5.30
2014,10,23,15,34,5.30
2014,10,23,15,35,6.50
2014,10,23,15,36,3.80
2014,10,23,15,37,3.40
2014,10,23,15,38,3.10
2014,10,23,15,39,4.30
2014,10,23,15,40,5.70
2014,10,23,15,41,5.10
2014,10,23,15,42,7.70
2014,10,23,15,43,7.90
2014,10,23,15,44,3.00
2014,10,23,15,45,6.60
2014,10,23,15,46,4.40
2014,10,23,15,47,7.60
2014,10,23,15,48,3.20
2014,10,23,15,49,6.20
2014,10,23,15,50,4.10
2014,10,23,15,51,5.60
2014,10,23,15,52,3.50
2014,10,23,15,53,1.60
2014,10,23,15,54,4.80
2014,10,23,15,55,6.70
2014,10,23,15,56,3.60
2014,10,23,15,57,6.20
2014,10,23,15,58,6.00
2014,10,23,15,59,13.30
2014,10,23,16,00,13.80
2014,10,23,16,01,10.40
2014,10,23,16,02,5.60
2014,10,23,16,03,7.70
2014,10,23,16,04,13.60
2014,10,23,16,05,12.30
2014,10,23,16,06,4.60
2014,10,23,16,07,6.20
2014,10,23,16,08,8.50
2014,10,23,16,09,10.50
2014,10,23,16,10,14.00
2014,10,23,16,11,9.40
2014,10,23,16,12,7.20
2014,10,23,16,13,11.20
2014,10,23,16,14,10.90
2014,10,23,16,15,10.00
2014,10,23,16,16,10.50
2014,10,23,16,17,13.40
2014,10,23,16,18,13.20
2014,10,23,16,19,5.60
2014,10,23,16,20,12.50
2014,10,23,16,21,11.80
2014,10,23,16,22,11.60
2014,10,23,16,23,12.40
2014,10,23,16,24,12.80
2014,10,23,16,25,10.10
2014,10,23,16,26,11.10
2014,10,23,16,27,9.60
2014,10,23,16,28,12.10
2014,10,23,16,29,9.90
2014,10,23,16,30,10.70
2014,10,23,16,31,9.30
2014,10,23,16,32,15.50
2014,10,23,16,33,6.80
2014,10,23,16,34,9.20
2014,10,23,16,35,11.20
2014,10,23,16,36,5.40
2014,10,23,16,37,9.90
2014,10,23,16,38,13.00
2014,10,23,16,39,6.80
2014,10,23,16,40,8.00
2014,10,23,16,41,6.80
2014,10,23,16,42,5.60
2014,10,23,16,43,2.20
2014,10,23,16,44,5.20
2014,10,23,16,45,0.60
2014,10,23,16,46,4.30
2014,10,23,16,47,1.60
2014,10,23,16,48,1.40
2014,10,23,16,49,2.70
2014,10,23,16,50,5.10
2014,10,23,16,51,4.50
2014,10,23,16,52,2.80
2014,10,23,16,53,2.30
2014,10,23,16,54,0.20
2014,10,23,16,55,2.20
2014,10,23,16,56,2.20
2014,10,23,16,57,0.00
2014,10,23,16,58,0.00
2014,10,23,16,59,1.90
2014,10,23,17,00,0.00
2014,10,23,17,01,0.10
2014,10,23,17,02,1.60
2014,10,23,17,03,4.20
2014,10,23,17,04,2.90
2014,10,23,17,05,1.90
2014,10,23,17,06,1.40
2014,10,23,17,07,1.10
2014,10,23,17,08,0.00
2014,10,23,17,09,0.00
2014,10,23,17,10,4.60
2014,10,23,17,11,5.00
2014,10,23,17,12,4.20
2014,10,23,17,13,5.70
2014,10,23,17,14,3.00
2014,10,23,17,15,2.00
2014,10,23,17,16,4.00
2014,10,23,17,17,4.80
2014,10,23,17,18,1.60
2014,10,23,17,19,1.70
2014,10,23,17,20,3.90
2014,10,23,17,21,2.30
2014,10,23,17,22,2.90
2014,10,23,17,23,2.90
2014,10,23,17,24,2.70
2014,10,23,17,25,4.80
2014,10,23,17,26,3.90
2014,10,23,17,27,3.10
2014,10,23,17,28,1.50
2014,10,23,17,29,4.10
2014,10,23,17,30,3.90
2014,10,23,17,31,7.60
2014,10,23,17,32,3.80
2014,10,23,17,33,4.20
2014,10,23,17,34,3.50
2014,10,23,17,35,4.30
2014,10,23,17,36,5.40
2014,10,23,17,37,3.90
2014,10,23,17,38,3.50
2014,10,23,17,39,6.80
2014,10,23,17,40,6.20
2014,10,23,17,41,5.30
2014,10,23,17,42,7.10
2014,10,23,17,43,5.60
2014,10,23,17,44,4.30
2014,10,23,17,45,5.40
2014,10,23,17,46,4.60
2014,10,23,17,47,2.40
2014,10,23,17,48,1.00
2014,10,23,17,49,3.80
2014,10,23,17,50,6.80
2014,10,23,17,51,3.30
2014,10,23,17,52,2.20
2014,10,23,17,53,3.30
2014,10,23,17,54,0.90
2014,10,23,17,55,3.40
2014,10,23,17,56,3.60
2014,10,23,17,57,5.50
2014,10,23,17,58,2.40
2014,10,23,17,59,4.80
2014,10,23,18,00,3.60
2014,10,23,18,01,5.70
2014,10,23,18,02,5.20